Temperature
-2 -2 -2 -2 -2 -2 -2 -2 -1 -1 -0 -1 -1 -1 -0 -0 0 0 0 1 1 1 1 2 2 3 3 4 4 4 5 5 5 5 5 5 5 6 6 5 5 6 6 6
-3 -2 -2 -2 -2 -2 -2 -2 -2 -1 -1 -1 -1 -1 -1 -1 -1 -0 -0 0 0 1 1 1 2 2 3 3 4 4 4 4 4 4 4 5 5 5 5 5 5 5 5 5
-4 -3 -2 -3 -3 -3 -3 -3 -2 -2 -2 -2 -2 -2 -2 -2 -1 -1 -1 -0 -0 0 0 1 1 2 2 3 3 3 4 4 4 4 4 4 4 4 4 4 4 5 4 4
-4 -4 -4 -3 -3 -3 -3 -3 -3 -3 -3 -3 -3 -2 -2 -2 -2 -1 -1 -1 -1 -0 0 0 1 1 1 2 2 3 3 3 3 3 3 3 3 3 4 4 4 4 4 4
-5 -5 -4 -3 -4 -4 -4 -4 -4 -4 -4 -3 -3 -2 -2 -2 -2 -2 -1 -1 -1 -0 -0 -0 0 0 1 1 1 2 2 2 3 3 3 3 3 3 3 3 3 3 3 3
-6 -5 -5 -4 -4 -4 -3 -4 -4 -4 -4 -4 -4 -3 -3 -3 -3 -2 -2 -1 -1 -1 -1 -1 -0 -0 0 0 1 1 1 1 2 2 2 2 2 2 2 2 2 3 3 3
-7 -6 -5 -5 -5 -4 -4 -5 -5 -5 -5 -4 -4 -4 -4 -3 -3 -2 -2 -2 -1 -1 -1 -1 -1 -1 -0 -0 -0 0 1 1 1 1 1 1 1 1 1 2 2 2 2 2
-7 -7 -6 -5 -5 -5 -6 -5 -5 -5 -5 -5 -5 -4 -4 -4 -3 -3 -2 -2 -2 -2 -2 -2 -2 -1 -1 -1 -1 -0 -0 0 0 0 1 1 1 1 1 1 1 1 1 1
-7 -6 -6 -6 -6 -6 -6 -6 -6 -5 -5 -5 -5 -5 -4 -4 -4 -3 -3 -3 -3 -3 -2 -2 -2 -2 -2 -1 -1 -1 -1 -0 -0 -0 0 0 0 0 0 0 0 0 -0 0
-7 -7 -7 -6 -6 -6 -6 -6 -6 -6 -6 -5 -5 -5 -5 -5 -4 -4 -4 -3 -3 -3 -3 -3 -3 -3 -2 -2 -2 -2 -1 -1 -1 -1 -0 -0 -1 -1 -0 -1 -1 -1 -1 -1
-8 -8 -7 -6 -6 -6 -6 -6 -6 -6 -6 -6 -6 -6 -6 -5 -5 -5 -4 -4 -4 -4 -4 -4 -3 -3 -3 -3 -2 -2 -2 -2 -1 -1 -1 -1 -1 -1 -1 -1 -1 -1 -1 -1
-8 -8 -8 -7 -7 -7 -7 -7 -7 -6 -6 -6 -6 -6 -6 -6 -6 -5 -5 -5 -5 -4 -4 -4 -4 -4 -4 -3 -3 -3 -3 -2 -2 -2 -2 -2 -2 -2 -2 -2 -2 -2 -2 -2
-7 -7 -7 -7 -7 -7 -7 -7 -7 -7 -7 -7 -7 -6 -6 -6 -6 -6 -6 -5 -5 -5 -5 -5 -5 -4 -4 -4 -4 -4 -3 -3 -3 -3 -2 -2 -2 -2 -3 -3 -3 -3 -3 -2
-7 -7 -8 -7 -8 -7 -7 -7 -7 -7 -7 -7 -7 -7 -7 -7 -6 -6 -6 -6 -6 -6 -5 -5 -5 -5 -5 -5 -4 -4 -4 -4 -3 -3 -3 -3 -3 -3 -3 -3 -3 -3 -3 -3
-8 -8 -8 -8 -8 -8 -8 -8 -8 -8 -8 -8 -7 -7 -7 -7 -7 -7 -7 -7 -6 -6 -6 -6 -6 -6 -5 -5 -5 -5 -4 -4 -4 -4 -4 -4 -4 -4 -4 -4 -4 -4 -4 -4
-8 -8 -8 -8 -8 -8 -8 -8 -8 -8 -8 -8 -8 -8 -8 -8 -7 -7 -7 -7 -7 -7 -7 -7 -7 -6 -6 -6 -6 -5 -5 -5 -5 -5 -4 -4 -4 -4 -4 -4 -4 -5 -5 -4
-8 -8 -8 -8 -8 -8 -8 -8 -9 -8 -8 -8 -8 -8 -8 -8 -8 -8 -8 -7 -7 -7 -7 -7 -7 -7 -7 -7 -6 -6 -6 -6 -6 -5 -5 -5 -5 -5 -5 -5 -5 -5 -5 -5
-8 -8 -8 -8 -9 -9 -9 -9 -9 -9 -9 -9 -9 -8 -8 -8 -8 -8 -8 -8 -8 -8 -8 -8 -8 -8 -7 -7 -7 -7 -7 -7 -6 -6 -6 -6 -6 -6 -6 -6 -6 -6 -6 -6
-8 -8 -9 -9 -9 -9 -9 -9 -9 -9 -9 -9 -9 -9 -8 -9 -8 -8 -8 -8 -8 -8 -8 -8 -8 -8 -7 -7 -7 -7 -7 -7 -7 -7 -7 -7 -7 -7 -6 -6 -6 -6 -6 -6
-9 -9 -9 -9 -9 -9 -9 -9 -9 -9 -9 -9 -9 -9 -9 -9 -9 -9 -9 -9 -9 -9 -9 -8 -8 -8 -8 -8 -8 -7 -7 -7 -7 -7 -7 -7 -7 -7 -7 -7 -7 -7 -7 -7
-9 -9 -9 -9 -9 -9 -9 -9 -9 -9 -9 -9 -9 -9 -9 -9 -9 -9 -9 -9 -9 -9 -9 -9 -9 -8 -8 -8 -8 -8 -8 -8 -8 -8 -8 -8 -8 -8 -8 -8 -8 -7 -7 -7
-9 -9 -9 -9 -9 -10 -10 -10 -10 -10 -10 -10 -10 -10 -10 -10 -10 -9 -9 -10 -9 -9 -9 -9 -9 -9 -9 -8 -8 -8 -8 -8 -8 -8 -8 -8 -8 -8 -8 -8 -8 -8 -8 -8
-9 -10 -10 -10 -10 -10 -10 -10 -10 -10 -10 -10 -10 -10 -10 -10 -10 -10 -10 -10 -10 -10 -9 -9 -9 -9 -9 -9 -9 -9 -9 -9 -9 -9 -9 -9 -9 -9 -9 -9 -8 -8 -8 -8
-10 -10 -10 -10 -10 -10 -10 -10 -10 -10 -10 -10 -10 -10 -10 -10 -10 -10 -10 -10 -10 -10 -10 -10 -9 -9 -9 -9 -9 -9 -9 -9 -9 -9 -9 -9 -9 -9 -9 -9 -9 -9 -9 -9
-10 -10 -10 -10 -10 -10 -10 -10 -10 -10 -10 -10 -10 -10 -10 -10 -10 -10 -10 -10 -10 -10 -10 -10 -10 -10 -10 -9 -9 -9 -9 -9 -9 -9 -9 -9 -9 -9 -9 -9 -9 -9 -9 -9
-10 -10 -11 -11 -11 -11 -11 -11 -11 -11 -11 -11 -10 -10 -11 -11 -11 -11 -11 -11 -10 -10 -10 -10 -10 -10 -10 -10 -10 -10 -10 -10 -10 -10 -10 -10 -10 -10 -9 -9 -9 -9 -9 -9
-11 -11 -11 -11 -11 -11 -11 -11 -11 -11 -11 -11 -11 -11 -11 -11 -11 -11 -11 -11 -11 -11 -11 -11 -10 -10 -10 -10 -10 -10 -10 -10 -10 -10 -10 -10 -10 -10 -10 -10 -10 -10 -10 -9
Wind_Speed
2 2 3 6 6 6 3 1 1 2 2 5 7 6 5 5 5 5 6 6 5 5 4 5 4 4 4 4 3 1 1 2 2 2 3 4 4 5 5 5 5 5 5 5
2 1 3 5 7 5 3 2 2 3 3 6 7 7 7 7 6 5 5 5 5 5 4 4 4 4 4 4 4 2 1 2 1 2 3 3 4 4 5 5 5 5 5 5
3 4 3 3 5 3 2 2 1 2 4 7 8 8 7 6 6 5 5 5 4 4 4 4 4 3 3 3 3 3 2 2 2 3 3 2 3 4 4 4 4 5 5 5
2 3 0 2 3 3 1 2 4 4 5 6 7 7 4 4 6 6 6 5 4 4 4 4 3 4 4 3 3 2 2 2 2 3 3 3 3 4 4 4 4 4 4 4
0 0 3 3 5 4 2 1 6 7 7 8 8 4 3 6 8 7 6 5 4 3 3 3 3 3 3 4 4 3 2 1 1 2 3 3 3 3 3 3 3 3 3 4
1 1 2 3 8 8 1 1 6 7 7 7 7 3 4 8 9 8 8 6 4 4 4 3 3 3 3 3 3 2 2 2 1 1 3 3 3 2 2 3 3 3 3 3
1 2 4 4 9 5 2 4 7 7 6 6 4 4 6 8 8 7 8 5 4 3 3 3 3 2 2 2 3 2 2 2 1 1 2 2 2 2 3 3 3 3 3 2
1 1 3 5 4 2 3 6 6 6 5 6 5 6 7 7 7 8 7 5 4 3 3 3 3 2 2 2 3 2 2 2 2 2 2 2 3 3 3 4 4 3 3 2
3 3 3 2 2 3 4 5 5 5 6 5 5 6 7 7 7 7 6 5 4 3 3 4 3 2 2 2 2 2 2 2 2 2 2 2 3 3 3 3 3 2 2 2
2 3 4 4 4 5 5 4 5 5 5 4 5 6 7 7 7 6 5 4 4 3 3 4 4 4 2 2 2 2 2 2 2 2 2 2 2 2 2 2 3 2 2 2
3 5 5 4 5 6 6 6 6 6 5 4 4 6 6 6 6 6 5 4 3 2 3 3 4 4 3 3 2 2 2 1 1 1 2 2 2 2 1 1 2 3 2 3
4 4 3 6 6 5 6 7 6 6 6 5 4 5 6 6 5 5 4 3 3 3 3 4 4 4 4 3 2 1 1 1 1 1 1 2 3 3 4 3 3 2 1 1
4 4 4 6 5 5 5 6 6 5 5 5 5 4 4 4 5 4 4 4 3 3 3 3 4 4 4 3 2 2 1 1 1 1 1 2 2 2 2 4 5 4 3 2
3 2 3 3 4 5 5 5 5 5 5 4 4 4 4 4 5 5 4 4 4 4 4 4 4 4 4 4 3 3 2 2 1 1 1 1 1 1 1 2 1 2 3 2
3 3 4 5 4 5 4 4 5 5 5 5 5 4 4 5 5 5 4 4 4 4 4 4 4 5 5 4 4 3 3 2 2 1 1 1 1 1 1 2 2 1 1 2
4 3 3 3 5 5 4 4 4 5 5 5 5 5 5 4 4 4 4 4 3 4 4 4 4 4 4 4 3 3 3 4 3 2 2 2 2 1 1 1 1 1 0 1
2 3 3 4 5 5 4 4 3 4 4 4 5 5 5 5 4 4 4 4 4 3 4 3 4 4 4 3 3 2 2 3 4 3 2 2 1 1 1 1 1 1 1 1
3 4 3 4 4 4 4 3 3 4 4 4 4 4 4 4 4 4 4 4 4 4 5 4 3 3 3 3 3 2 2 2 2 2 2 2 2 1 1 1 1 1 1 2
3 3 3 3 3 2 3 3 4 3 4 4 4 3 3 3 3 3 3 3 4 4 5 4 5 4 3 3 3 2 2 2 2 2 2 2 2 2 2 2 1 1 1 1
3 3 3 3 2 2 3 3 3 3 3 3 3 3 3 3 3 3 3 3 3 3 3 4 4 3 3 3 4 2 1 2 2 2 2 2 2 2 2 1 1 1 1 1
3 3 3 3 3 3 3 3 3 3 3 3 2 3 3 4 3 3 2 3 3 3 3 4 3 2 2 3 3 1 1 1 1 1 1 1 1 1 1 1 1 1 1 1
3 3 3 3 3 3 3 3 2 3 3 3 3 3 3 3 3 3 2 2 3 5 4 2 2 3 3 3 2 2 2 1 1 1 1 1 1 1 1 1 1 1 1 1
3 3 3 3 3 3 3 3 3 2 3 3 3 3 3 3 3 2 3 3 3 4 3 2 3 4 4 3 2 2 1 1 1 1 1 1 1 1 1 1 1 2 2 2
3 3 3 2 2 2 3 3 3 3 3 3 3 3 3 3 3 2 2 5 5 5 3 3 5 5 4 2 2 1 1 1 1 1 1 1 1 1 1 1 2 2 2 2
3 2 2 2 2 2 3 3 3 3 3 3 4 4 3 2 2 3 3 3 5 4 3 4 5 5 3 1 1 1 1 1 1 1 1 1 1 1 1 2 2 2 2 3
2 2 2 2 2 2 2 2 2 2 2 3 3 3 3 2 3 3 2 3 4 4 3 2 3 3 2 1 1 1 1 2 2 1 1 2 2 2 2 2 3 3 3 3
2 2 2 2 2 2 2 2 2 3 3 3 4 3 3 3 3 2 3 2 3 3 3 2 2 2 2 1 2 2 2 1 2 2 2 2 2 2 3 3 3 4 4 5
Wind_Direction
282 301 32 18 0 8 33 49 159 301 313 334 342 346 351 3 18 39 38 29 21 15 7 5 7 9 10 8 7 24 102 131 160 159 155 152 152 151 150 151 156 160 160 161
318 294 26 10 358 349 339 326 316 340 319 332 339 358 4 8 18 25 23 17 11 6 1 359 358 360 5 4 4 20 96 128 134 131 127 134 142 142 144 150 152 149 154 161
306 314 13 353 340 325 328 353 344 304 304 334 347 350 348 353 10 12 5 360 355 350 342 341 346 352 355 354 3 23 71 98 117 119 118 127 134 136 144 152 148 147 154 158
313 19 290 260 338 339 319 24 19 3 346 340 327 318 334 7 6 356 350 345 341 340 338 341 352 359 358 4 11 30 60 79 99 120 125 120 125 136 144 145 148 152 156 160
84 271 284 316 345 341 302 316 14 356 344 339 335 342 357 7 1 347 336 332 328 331 337 349 0 4 18 19 18 30 43 63 100 134 133 132 139 147 143 138 136 137 147 146
102 153 248 296 316 315 254 275 350 344 333 332 346 351 314 334 339 339 341 341 344 350 357 2 359 13 35 24 14 12 16 13 34 140 146 150 156 149 131 131 134 135 129 136
177 224 266 310 318 349 96 287 317 321 320 322 319 292 300 321 330 336 337 343 353 359 0 348 352 20 30 19 349 341 359 17 37 79 128 143 136 127 130 128 126 127 125 120
168 226 272 333 359 30 278 299 310 312 317 319 320 321 325 329 331 336 342 351 356 360 357 353 0 26 27 356 340 353 20 37 51 61 89 114 122 119 123 129 128 128 121 96
204 224 266 314 295 290 299 307 309 311 315 325 328 325 329 332 332 336 340 344 349 356 360 1 3 19 23 342 353 16 38 43 54 56 66 93 121 130 128 131 139 147 145 146
266 276 293 307 316 325 321 314 313 320 320 327 325 322 326 327 328 333 339 345 350 3 11 1 360 8 8 354 8 44 51 42 50 72 70 71 88 122 141 151 153 161 168 172
271 287 310 309 315 321 327 329 332 333 333 328 326 323 324 322 322 326 330 338 349 0 6 356 357 6 7 9 23 46 54 52 58 74 103 90 73 71 111 155 177 177 185 184
246 262 262 280 300 320 325 325 326 330 335 336 328 319 324 322 322 325 330 341 356 3 8 360 1 6 7 8 23 61 60 53 70 93 97 100 92 61 47 63 64 70 122 177
249 274 263 276 296 312 314 317 321 325 323 324 328 324 328 332 334 338 347 357 359 358 1 1 3 5 2 2 15 38 62 53 92 108 116 115 117 116 86 52 54 63 68 70
277 298 292 292 293 305 311 318 325 327 326 325 327 333 340 342 343 346 349 351 356 3 5 6 6 359 358 6 17 26 33 32 38 92 116 127 127 127 133 121 75 36 33 48
287 276 269 289 302 309 315 323 332 331 331 335 339 341 344 342 337 336 342 351 4 10 5 7 6 355 359 11 21 25 29 33 41 57 65 77 89 101 116 120 120 92 35 37
294 302 302 311 314 319 322 321 317 318 326 332 337 338 337 334 333 340 350 357 5 359 353 358 355 350 1 13 20 21 28 30 30 53 61 61 62 76 93 101 99 92 46 350
285 293 299 305 306 306 307 304 303 308 319 323 323 327 334 341 350 356 357 359 1 352 348 349 345 352 3 10 20 24 27 28 31 43 54 57 56 61 73 88 85 52 11 353
256 261 269 272 282 294 304 312 309 309 309 309 317 328 336 340 339 339 345 356 6 5 356 345 348 360 6 11 17 22 25 28 34 39 41 42 48 56 65 67 64 45 7 5
286 280 283 288 286 282 292 301 303 306 309 316 323 325 326 327 327 332 345 1 2 352 342 346 357 8 13 11 15 30 38 40 39 33 32 35 34 40 43 49 46 31 11 3
305 301 299 304 312 310 304 308 312 317 318 322 328 335 337 333 333 340 352 352 340 319 323 339 350 358 1 3 10 27 40 44 45 36 29 29 26 26 30 32 25 8 6 14
301 306 309 308 310 312 309 310 316 317 322 331 333 328 326 327 330 337 346 340 339 344 350 352 357 351 353 0 9 23 35 36 31 28 22 21 25 27 24 22 13 359 352 351
294 298 297 301 308 312 315 315 311 313 323 329 327 325 325 326 330 335 329 310 321 335 344 340 339 349 358 5 18 27 32 29 24 26 25 11 3 5 3 357 344 332 332 333
283 285 288 290 290 300 318 321 312 313 314 316 318 318 314 311 315 317 317 322 323 331 338 329 339 351 1 20 31 31 29 24 15 9 3 352 338 325 319 320 316 312 312 312
281 287 288 296 309 320 316 312 310 309 306 308 311 311 308 312 316 303 289 315 328 328 334 335 348 357 11 25 25 22 13 7 356 345 340 336 330 322 311 306 305 304 303 303
278 281 291 311 309 296 295 307 316 314 312 311 312 313 310 294 286 304 309 314 325 334 340 342 347 353 6 2 355 347 336 318 312 327 334 329 319 311 305 300 295 296 295 292
280 282 279 275 277 289 298 303 306 308 311 313 315 316 314 308 298 302 311 317 322 331 336 330 329 337 343 335 324 318 315 316 323 324 307 299 296 293 291 290 288 286 285 286
291 295 299 306 303 297 295 294 292 297 297 295 301 308 311 313 316 319 319 322 324 324 323 322 322 322 319 316 310 308 304 299 293 287 280 275 273 274 275 276 279 281 283 284
Height
1487 1483 1483 1482 1480 1478 1478 1478 1479 1476 1473 1472 1469 1466 1464 1462 1460 1459 1458 1458 1457 1457 1457 1457 1457 1457 1457 1458 1458 1459 1460 1461 1462 1463 1465 1467 1469 1472 1474 1477 1479 1482 1484 1486
1488 1483 1482 1481 1481 1480 1479 1479 1478 1475 1475 1473 1470 1468 1465 1463 1461 1460 1459 1459 1458 1458 1458 1457 1457 1456 1456 1456 1457 1458 1458 1459 1460 1462 1463 1465 1467 1469 1472 1474 1476 1479 1481 1483
1491 1485 1482 1486 1485 1483 1482 1481 1479 1479 1479 1475 1471 1469 1467 1465 1463 1462 1460 1459 1459 1458 1457 1457 1456 1456 1455 1455 1455 1456 1457 1458 1459 1460 1462 1463 1465 1467 1469 1471 1473 1475 1478 1480
1494 1492 1497 1491 1486 1484 1482 1482 1481 1480 1478 1476 1473 1470 1468 1466 1465 1463 1461 1460 1459 1458 1457 1457 1456 1455 1454 1454 1454 1455 1455 1456 1458 1459 1460 1462 1463 1465 1467 1469 1471 1473 1475 1478
1499 1499 1494 1489 1487 1486 1485 1484 1483 1481 1478 1476 1473 1469 1467 1467 1465 1464 1462 1460 1459 1458 1457 1455 1455 1454 1453 1453 1453 1454 1454 1455 1456 1458 1459 1460 1462 1463 1465 1467 1469 1471 1473 1475
1502 1500 1499 1494 1487 1483 1484 1485 1483 1482 1479 1477 1473 1472 1470 1467 1465 1463 1461 1459 1457 1456 1455 1454 1454 1453 1452 1452 1452 1453 1453 1454 1455 1456 1457 1458 1460 1462 1463 1465 1467 1469 1470 1472
1506 1504 1497 1493 1487 1483 1490 1490 1484 1482 1479 1477 1475 1474 1471 1468 1465 1462 1460 1458 1457 1455 1454 1453 1453 1452 1451 1451 1451 1452 1452 1453 1454 1454 1456 1457 1458 1460 1461 1463 1464 1466 1467 1469
1505 1505 1501 1493 1489 1491 1491 1486 1483 1481 1478 1476 1474 1471 1469 1467 1464 1462 1459 1457 1456 1454 1453 1452 1451 1450 1449 1450 1450 1451 1451 1451 1452 1453 1454 1456 1457 1458 1459 1461 1462 1463 1465 1466
1502 1501 1496 1493 1492 1490 1488 1485 1482 1479 1477 1475 1473 1470 1468 1465 1463 1461 1459 1457 1455 1454 1452 1451 1450 1449 1448 1448 1449 1449 1449 1450 1451 1452 1453 1454 1455 1456 1458 1459 1460 1461 1463 1464
1499 1496 1493 1492 1490 1488 1486 1484 1481 1478 1476 1474 1472 1469 1467 1464 1462 1460 1458 1456 1454 1453 1451 1450 1449 1448 1448 1447 1447 1447 1448 1448 1449 1450 1451 1452 1454 1455 1456 1457 1458 1460 1461 1462
1498 1495 1492 1489 1488 1487 1484 1482 1479 1477 1475 1473 1471 1468 1466 1463 1461 1459 1457 1455 1453 1452 1450 1449 1448 1447 1447 1446 1446 1446 1446 1447 1448 1449 1450 1451 1452 1453 1455 1456 1457 1458 1459 1460
1497 1493 1493 1489 1487 1485 1483 1480 1478 1476 1473 1471 1470 1467 1465 1463 1461 1458 1456 1454 1453 1451 1449 1448 1447 1446 1446 1445 1445 1445 1445 1445 1446 1447 1448 1449 1450 1452 1453 1454 1455 1457 1458 1459
1493 1491 1490 1488 1486 1484 1481 1479 1477 1475 1472 1470 1468 1466 1464 1462 1460 1458 1456 1454 1452 1450 1449 1448 1447 1446 1445 1445 1444 1444 1444 1444 1445 1446 1446 1447 1449 1449 1450 1452 1453 1454 1455 1456
1490 1489 1487 1485 1484 1481 1480 1477 1476 1473 1471 1469 1467 1465 1463 1461 1459 1457 1455 1454 1452 1450 1449 1448 1446 1445 1445 1444 1444 1444 1444 1444 1444 1445 1445 1446 1447 1448 1449 1449 1450 1451 1453 1453
1488 1487 1486 1483 1481 1479 1477 1475 1473 1471 1469 1467 1466 1464 1462 1460 1458 1457 1455 1454 1452 1450 1449 1447 1446 1445 1444 1444 1443 1443 1443 1442 1443 1443 1444 1445 1446 1446 1447 1448 1449 1449 1450 1451
1486 1485 1483 1481 1479 1477 1475 1473 1471 1469 1468 1466 1464 1462 1461 1459 1457 1456 1455 1453 1451 1449 1448 1447 1446 1445 1444 1443 1443 1442 1442 1442 1442 1442 1443 1443 1444 1445 1445 1446 1447 1447 1448 1449
1483 1482 1480 1478 1476 1475 1473 1471 1470 1468 1466 1464 1463 1461 1460 1458 1456 1455 1453 1452 1451 1449 1448 1447 1446 1445 1444 1443 1443 1442 1441 1441 1441 1441 1441 1442 1442 1443 1443 1444 1445 1446 1446 1447
1481 1480 1478 1476 1474 1472 1471 1469 1468 1467 1465 1463 1462 1460 1458 1456 1455 1454 1452 1451 1450 1449 1448 1447 1446 1445 1444 1443 1443 1442 1441 1441 1441 1441 1441 1441 1441 1442 1442 1442 1443 1444 1444 1445
1479 1477 1476 1474 1473 1471 1469 1468 1466 1465 1463 1462 1460 1458 1457 1456 1454 1453 1452 1450 1449 1448 1447 1446 1446 1445 1444 1443 1443 1442 1441 1441 1441 1440 1440 1440 1440 1440 1441 1441 1441 1442 1442 1443
1476 1475 1474 1472 1471 1469 1468 1466 1465 1463 1462 1460 1459 1457 1456 1455 1453 1452 1450 1449 1448 1447 1446 1446 1445 1444 1443 1443 1443 1442 1441 1441 1441 1440 1440 1440 1440 1440 1440 1440 1440 1440 1441 1441
1474 1473 1472 1470 1469 1468 1466 1465 1463 1461 1460 1459 1458 1456 1455 1453 1452 1451 1449 1448 1448 1447 1446 1445 1444 1444 1443 1442 1442 1442 1441 1441 1440 1440 1440 1440 1439 1439 1439 1439 1439 1439 1439 1439
1472 1471 1470 1469 1467 1466 1465 1463 1462 1460 1459 1458 1456 1455 1453 1452 1451 1450 1449 1448 1447 1446 1445 1444 1444 1443 1442 1442 1442 1441 1441 1440 1440 1439 1439 1439 1439 1438 1438 1438 1438 1438 1438 1438
1470 1469 1468 1467 1465 1464 1463 1461 1460 1459 1457 1456 1455 1453 1452 1451 1450 1448 1447 1447 1446 1445 1444 1443 1443 1442 1442 1441 1441 1441 1440 1440 1439 1438 1438 1438 1438 1437 1437 1437 1436 1436 1436 1436
1468 1467 1466 1465 1463 1462 1461 1460 1458 1457 1456 1454 1453 1452 1450 1449 1448 1447 1446 1446 1445 1444 1443 1442 1442 1441 1441 1440 1440 1439 1439 1438 1438 1437 1437 1437 1436 1436 1436 1435 1435 1435 1434 1434
1466 1464 1463 1462 1461 1459 1458 1457 1456 1455 1454 1453 1451 1450 1449 1448 1447 1446 1445 1444 1443 1442 1442 1441 1440 1440 1439 1439 1438 1438 1437 1437 1437 1436 1436 1435 1435 1435 1434 1434 1433 1433 1432 1432
1463 1462 1461 1460 1459 1458 1456 1455 1454 1453 1452 1451 1450 1449 1448 1447 1445 1444 1443 1443 1442 1441 1440 1439 1439 1438 1438 1437 1437 1436 1436 1435 1435 1435 1434 1434 1433 1433 1432 1432 1431 1431 1430 1429
1460 1459 1458 1457 1456 1455 1454 1453 1452 1451 1450 1449 1447 1447 1446 1445 1444 1443 1442 1441 1440 1439 1438 1438 1437 1436 1436 1435 1435 1434 1434 1434 1433 1433 1432 1432 1431 1431 1430 1429 1429 1428 1427 1426